Date and Time,30m Wind Direction,30m Wind Speed,30m Wind Vert,30m Quality,40m Wind Direction,40m Wind Speed,40m Wind Vert,40m Quality,50m Wind Direction,50m Wind Speed,50m Wind Vert,50m Quality,60m Wind Direction,60m Wind Speed,60m Wind Vert,60m Quality,80m Wind Direction,80m Wind Speed,80m Wind Vert,80m Quality,100m Wind Direction,100m Wind Speed,100m Wind Vert,100m Quality,120m Wind Direction,120m Wind Speed,120m Wind Vert,120m Quality,140m Wind Direction,140m Wind Speed,140m Wind Vert,140m Quality,160m Wind Direction,160m Wind Speed,160m Wind Vert,160m Quality,180m Wind Direction,180m Wind Speed,180m Wind Vert,180m Quality,200m Wind Direction,200m Wind Speed,200m Wind Vert,200m Quality,30m Wind Turbulence,40m Wind Turbulence,50m Wind Turbulence,60m Wind Turbulence,80m Wind Turbulence,100m Wind Turbulence,120m Wind Turbulence,140m Wind Turbulence,160m Wind Turbulence,180m Wind Turbulence,200m Wind Turbulence
1/4/2020 12:00 AM,248.3,2.73,-0.1,96.0,254.9,2.76,-0.25,97.0,238.4,4.07,-0.82,98.0,248.6,3.27,-1.37,98.0,254.5,3.3,-1.92,96.0,230.0,4.13,-1.64,92.0,266.3,5.62,-0.44,91.0,262.6,4.84,-0.38,90.0,261.8,5.39,-0.36,67.0,236.1,9.23,-1.4,18.0,169.2,9.49,-5.29,0.0,0.11,0.33,0.51,0.78,0.85,0.84,0.29,0.47,0.52,0.42,0.17
1/4/2020 12:10 AM,231.0,2.58,-0.21,94.0,244.5,3.05,-0.33,97.0,256.8,4.24,-1.78,96.0,248.8,2.66,-1.83,97.0,253.8,3.21,-1.44,97.0,235.6,5.89,-1.0,95.0,229.2,5.77,-0.76,93.0,284.3,6.57,-1.34,85.0,127.2,4.09,-3.87,11.0,170.4,16.76,-3.77,5.0,6.2,30.71,-3.13,2.0,0.24,0.34,0.55,0.96,0.64,0.33,0.32,0.6,1.74,0.5,0.25
1/4/2020 12:20 AM,245.8,2.09,-0.47,95.0,241.7,3.27,-0.71,98.0,239.5,3.16,-0.84,95.0,233.8,4.03,-0.61,98.0,256.8,3.55,-0.51,97.0,255.5,3.21,-0.83,95.0,235.9,3.13,-0.68,91.0,255.8,3.69,-1.44,77.0,317.8,4.36,-4.49,7.0,251.8,28.95,-2.88,0.0,29.4,19.48,-0.18,0.0,0.61,0.49,0.55,0.38,0.44,0.62,0.62,0.82,0.75,0.17,0.39
1/4/2020 12:30 AM,230.2,3.11,-1.0,95.0,250.3,4.63,-2.23,97.0,240.7,6.66,-2.46,98.0,233.1,6.45,-2.43,97.0,228.4,5.32,-2.58,97.0,225.2,5.78,-2.55,95.0,229.4,4.47,-3.17,93.0,256.9,4.04,-4.06,89.0,280.7,4.28,-5.29,49.0,257.4,4.04,-5.18,29.0,346.5,14.25,-3.97,7.0,0.64,0.53,0.38,0.39,0.52,0.5,0.8,0.54,0.3,0.48,0.56
1/4/2020 12:40 AM,244.0,3.59,-0.64,97.0,258.9,2.66,-0.8,96.0,234.0,3.92,-0.85,96.0,242.7,4.72,-0.77,98.0,242.5,3.97,-1.09,98.0,245.8,2.56,-1.06,96.0,259.1,4.0,-1.12,92.0,263.8,2.99,-3.25,50.0,246.2,5.69,-3.53,15.0,314.1,6.46,-1.75,3.0,27.1,8.42,-0.89,3.0,0.39,0.56,0.42,0.32,0.47,0.96,0.56,0.54,0.5,0.37,0.26
1/4/2020 12:50 AM,288.2,2.74,-0.05,96.0,291.1,2.84,-0.02,97.0,283.4,2.94,-0.03,98.0,289.0,2.77,-0.03,98.0,291.4,3.48,-0.03,98.0,294.5,3.49,-0.03,96.0,291.9,3.68,-0.09,92.0,295.2,3.43,-0.06,49.0,292.0,2.95,-0.07,25.0,293.0,2.98,-0.04,38.0,291.1,3.19,-0.05,21.0,0.15,0.13,0.11,0.1,0.08,0.07,0.09,0.55,0.16,0.28,0.07
1/4/2020 1:00 AM,291.0,1.97,-0.03,95.0,352.7,3.1,-0.4,97.0,336.3,2.52,-1.32,97.0,326.2,3.09,-1.69,96.0,311.9,3.78,-1.97,95.0,252.9,3.98,-1.23,96.0,272.7,7.22,-1.33,92.0,305.1,3.61,-1.13,72.0,285.1,4.07,-0.65,42.0,211.1,6.62,-0.63,24.0,190.6,21.72,-1.66,14.0,0.26,0.4,0.96,0.95,0.73,0.65,0.35,0.47,0.56,0.98,0.34
1/4/2020 1:10 AM,242.2,1.63,-0.1,32.0,339.6,3.38,-0.93,98.0,355.0,2.48,-3.4,96.0,320.7,3.7,-3.06,96.0,321.3,3.17,-3.52,95.0,262.0,2.39,-3.7,90.0,208.9,3.32,-1.16,90.0,244.3,2.88,-0.84,64.0,218.5,5.92,-1.43,12.0,338.6,5.03,-0.9,6.0,246.4,3.08,-0.17,21.0,0.24,0.49,0.82,0.67,0.61,1.04,0.75,0.8,0.54,0.45,0.4
1/4/2020 1:20 AM,248.0,2.19,-0.09,96.0,246.1,2.41,-0.11,96.0,240.6,3.52,-0.55,96.0,245.0,3.89,-1.34,97.0,238.5,5.8,-1.96,96.0,222.7,5.32,-1.78,90.0,268.6,4.49,-2.19,83.0,7.2,3.83,-3.63,22.0,243.3,9.95,-4.55,2.0,299.0,8.97,-5.12,2.0,12.1,39.2,-3.35,3.0,0.16,0.14,0.41,0.55,0.41,0.59,0.52,0.96,0.21,0.59,0.48
1/4/2020 1:30 AM,249.7,2.25,-0.13,96.0,257.4,3.3,-0.35,96.0,247.2,2.71,-0.65,96.0,254.4,3.1,-0.75,97.0,241.3,2.53,-0.98,95.0,215.6,4.93,-1.03,88.0,261.5,3.09,-0.85,49.0,241.6,4.0,-0.5,23.0,231.8,15.63,-3.02,0.0,187.7,19.82,-1.97,0.0,62.6,16.26,-1.63,0.0,0.14,0.17,0.48,0.41,0.8,0.36,0.44,0.54,0.26,0.04,0.06
1/4/2020 1:40 AM,278.9,3.85,-2.19,97.0,269.9,2.46,-3.24,98.0,271.0,4.23,-3.64,98.0,267.6,3.03,-3.51,99.0,253.2,4.83,-4.01,97.0,248.4,2.87,-4.34,96.0,255.0,3.27,-4.55,93.0,246.3,3.27,-5.0,89.0,260.1,3.84,-5.07,68.0,262.5,4.24,-5.25,54.0,257.3,3.45,-5.05,29.0,0.63,1.03,0.5,0.74,0.4,0.51,0.52,0.31,0.36,0.67,0.35
1/4/2020 1:50 AM,243.7,3.11,-0.84,97.0,293.8,4.16,-3.38,98.0,280.0,5.11,-3.27,98.0,300.9,3.94,-3.39,98.0,240.6,3.67,-3.9,99.0,248.2,3.34,-4.41,97.0,239.7,3.54,-5.0,93.0,224.5,2.99,-5.46,90.0,233.5,2.77,-5.63,83.0,220.3,3.52,-5.44,48.0,228.0,8.56,-5.42,26.0,0.54,0.66,0.5,0.68,0.68,0.54,0.57,0.44,0.76,0.42,0.26
1/4/2020 2:00 AM,260.2,2.56,-3.8,98.0,211.1,2.25,-5.91,99.0,226.6,3.68,-5.88,99.0,217.6,2.28,-6.06,99.0,226.3,3.22,-5.91,99.0,216.8,2.71,-6.19,99.0,227.0,2.48,-6.2,97.0,218.3,2.3,-6.35,96.0,223.9,2.65,-6.26,91.0,243.1,1.62,-6.22,87.0,145.7,5.12,-5.82,78.0,1.42,0.72,0.38,0.61,0.51,0.4,0.69,0.53,0.43,1.08,10.07
1/4/2020 2:10 AM,254.3,3.84,-3.99,99.0,206.4,3.53,-5.62,100.0,208.2,3.96,-5.6,100.0,210.6,3.65,-5.58,100.0,216.7,2.93,-5.64,99.0,222.7,2.4,-5.57,98.0,225.4,2.77,-5.78,97.0,221.4,3.77,-5.79,93.0,228.1,4.28,-5.96,85.0,229.5,3.02,-6.16,68.0,204.1,4.12,-6.34,41.0,0.67,0.31,0.24,0.25,0.35,0.4,0.4,0.42,0.3,0.36,0.45
1/4/2020 2:20 AM,260.1,5.31,-0.88,97.0,228.4,5.08,-5.39,99.0,217.9,4.85,-5.54,99.0,221.4,3.78,-5.63,99.0,217.4,4.32,-5.72,97.0,228.5,4.5,-5.66,96.0,223.1,4.02,-5.74,95.0,210.5,3.9,-5.62,93.0,238.5,4.32,-5.92,87.0,239.6,5.98,-5.82,82.0,214.8,3.72,-6.05,50.0,0.34,0.32,0.19,0.32,0.2,0.21,0.2,0.48,0.32,0.26,0.26
1/4/2020 2:30 AM,233.2,3.88,-0.67,98.0,276.8,2.74,-3.24,97.0,238.3,3.55,-3.72,98.0,227.6,2.9,-3.78,98.0,229.5,4.3,-4.23,96.0,223.1,5.02,-4.33,95.0,217.8,4.15,-4.39,92.0,227.4,4.02,-4.52,87.0,216.3,5.16,-2.57,65.0,262.3,4.62,-0.89,88.0,242.5,4.26,-0.21,50.0,0.36,0.69,0.47,0.62,0.33,0.22,0.28,0.3,0.85,0.57,1.02
1/4/2020 2:40 AM,211.6,3.26,-0.18,96.0,312.3,4.36,-2.84,97.0,298.0,3.32,-4.24,98.0,256.4,2.34,-4.4,97.0,214.4,2.9,-5.1,96.0,229.0,3.36,-5.35,96.0,217.9,4.11,-5.47,92.0,212.0,4.08,-5.3,89.0,223.6,6.28,-3.76,85.0,219.1,7.39,-1.63,79.0,297.0,6.85,-2.1,47.0,0.17,0.66,0.68,1.02,0.54,0.38,0.36,0.33,0.35,0.43,0.9
1/4/2020 2:50 AM,214.0,3.15,-0.24,96.0,317.3,1.04,-2.92,97.0,235.7,2.29,-3.45,98.0,186.4,1.86,-3.5,98.0,205.5,3.82,-4.12,95.0,218.5,3.15,-4.67,93.0,207.6,3.96,-4.86,90.0,219.5,3.91,-5.12,66.0,197.6,10.26,-3.09,49.0,202.9,8.93,-1.66,64.0,233.8,7.9,-1.07,30.0,0.2,2.01,0.98,1.02,0.43,0.41,0.61,0.41,0.76,0.35,0.29
1/4/2020 3:00 AM,193.7,3.23,0.01,96.0,214.4,3.35,-0.14,95.0,227.0,2.12,-0.62,96.0,323.4,4.27,-1.75,93.0,277.0,0.66,-1.33,91.0,211.3,2.7,-1.99,77.0,223.7,3.16,-0.62,66.0,215.3,5.63,-1.51,6.0,142.5,9.24,-2.18,6.0,46.1,9.35,-1.27,1.0,187.7,29.15,-2.52,1.0,0.12,0.11,0.64,0.37,13.89,1.17,1.17,0.8,0.74,0.87,0.15
1/4/2020 3:10 AM,218.7,2.62,-0.08,95.0,219.1,3.24,-0.17,96.0,258.3,1.81,-0.97,97.0,314.5,3.46,-1.95,93.0,195.7,3.07,-2.14,92.0,255.6,6.05,-2.45,85.0,234.0,5.16,-3.15,23.0,201.9,7.2,-3.89,6.0,214.3,40.48,-1.67,1.0,227.6,2.39,-3.82,1.0,42.1,4.07,-0.78,0.0,0.13,0.14,0.7,0.53,0.57,0.27,0.76,0.27,0.12,0.22,0.32
1/4/2020 3:20 AM,224.2,1.8,-0.09,95.0,228.9,1.55,-0.1,97.0,151.3,0.93,-0.81,71.0,349.0,1.16,-0.32,93.0,265.1,1.45,-0.26,90.0,252.0,2.15,-0.25,30.0,274.5,5.35,-0.28,11.0,332.3,6.65,0.36,1.0,254.7,3.8,-0.1,4.0,255.0,3.85,-0.15,24.0,263.8,2.74,-0.23,5.0,0.18,0.25,0.79,0.66,0.42,0.27,0.31,0.15,0.14,0.14,0.32
1/4/2020 3:30 AM,84.6,0.52,-0.22,94.0,252.3,1.99,-0.19,96.0,254.5,0.72,-0.34,94.0,196.8,1.18,0.12,64.0,228.1,1.84,-0.06,23.0,81.1,0.76,-0.22,30.0,200.0,2.02,-0.18,2.0,308.3,3.43,-0.24,1.0,344.4,14.67,1.24,1.0,226.2,39.63,-3.54,0.0,143.5,4.93,-0.74,0.0,0.75,0.18,1.57,0.43,0.43,1.38,0.45,0.24,0.55,0.23,0.24
1/4/2020 3:40 AM,151.1,0.53,-0.2,96.0,250.4,2.25,-0.23,97.0,196.4,1.49,-0.22,94.0,179.8,0.51,0.14,74.0,245.4,1.02,-0.11,64.0,214.2,3.16,0.01,3.0,238.3,2.47,0.0,12.0,240.1,2.93,-0.04,58.0,239.6,2.93,-0.05,35.0,162.6,2.01,0.42,0.0,240.1,12.38,1.17,0.0,0.78,0.15,0.41,0.86,0.2,0.39,0.27,0.06,0.08,0.19,0.11
1/4/2020 3:50 AM,189.2,1.47,-0.02,70.0,162.5,1.07,-0.23,95.0,288.4,2.84,-0.92,79.0,200.0,0.98,-1.04,93.0,10.8,6.93,-2.19,76.0,10.5,6.31,-3.86,29.0,103.0,5.53,-2.94,10.0,229.1,2.9,-0.18,73.0,235.6,2.02,-0.14,19.0,325.6,3.44,-0.14,0.0,332.6,31.63,-0.55,0.0,0.23,0.56,0.68,1.92,0.85,0.37,0.9,0.59,0.28,0.01,0.0
1/4/2020 4:00 AM,187.1,1.7,-0.16,95.0,154.1,0.48,-0.42,95.0,256.5,0.77,-1.54,85.0,306.7,2.78,-1.72,58.0,34.7,0.99,-2.24,85.0,258.1,2.59,-3.79,35.0,247.1,5.53,-1.24,28.0,172.3,5.27,-0.84,11.0,147.2,32.85,-1.22,0.0,275.1,10.74,-0.69,0.0,217.8,26.19,-4.51,0.0,0.36,2.37,2.29,0.54,2.11,0.42,1.22,0.46,0.16,0.08,0.02
1/4/2020 4:10 AM,219.8,1.73,-1.01,97.0,207.7,2.93,-4.87,98.0,185.7,3.53,-5.53,99.0,195.8,3.64,-5.53,99.0,183.6,3.57,-5.54,99.0,191.9,3.19,-5.62,98.0,214.5,3.03,-5.39,94.0,212.1,3.59,-5.85,91.0,200.6,4.24,-6.28,88.0,223.1,5.31,-6.52,62.0,252.7,5.73,-6.03,52.0,1.28,0.83,0.38,0.34,0.43,0.71,0.71,0.33,0.48,0.73,0.49
1/4/2020 4:20 AM,177.6,4.75,-0.19,97.0,23.2,1.73,-2.38,97.0,327.4,0.58,-2.65,98.0,143.7,1.45,-3.28,98.0,188.2,3.54,-3.98,97.0,184.2,4.61,-4.28,95.0,196.5,3.13,-4.1,92.0,175.3,4.94,-3.45,86.0,238.9,6.38,-3.38,44.0,239.7,2.95,-4.59,6.0,141.0,12.76,-2.94,3.0,0.13,1.38,2.74,1.34,0.57,0.18,0.62,0.46,0.43,0.36,3.15
1/4/2020 4:30 AM,195.0,3.19,-0.29,96.0,192.4,1.19,-3.37,98.0,210.0,3.68,-3.14,98.0,235.0,3.18,-2.98,98.0,220.3,1.96,-4.53,97.0,202.9,3.73,-5.49,95.0,241.0,3.11,-5.06,93.0,269.7,3.84,-4.21,91.0,225.2,3.3,-5.37,87.0,223.9,4.31,-5.47,76.0,221.4,4.63,-5.43,51.0,0.31,2.73,0.76,0.92,0.98,0.36,0.85,0.91,0.66,0.58,0.51
1/4/2020 4:40 AM,262.4,4.82,-1.95,96.0,240.7,2.38,-4.8,99.0,197.8,4.63,-5.45,100.0,201.2,4.01,-5.47,99.0,201.7,3.74,-5.45,100.0,205.2,3.79,-5.47,99.0,207.8,3.97,-5.42,96.0,216.5,4.41,-5.51,94.0,212.8,4.43,-5.51,90.0,216.5,5.3,-5.5,81.0,205.2,3.42,-5.32,44.0,0.56,0.83,0.12,0.14,0.16,0.16,0.22,0.2,0.28,0.29,0.55
1/4/2020 4:50 AM,222.7,3.61,-0.67,96.0,200.2,3.28,-4.47,99.0,203.9,4.44,-5.38,99.0,200.6,4.6,-5.31,100.0,197.9,4.17,-5.34,98.0,199.9,3.93,-5.39,96.0,202.5,4.91,-5.48,93.0,203.7,4.24,-5.62,90.0,207.2,4.02,-5.8,86.0,194.0,5.38,-5.85,52.0,201.8,6.14,-5.49,36.0,0.47,0.72,0.19,0.18,0.2,0.34,0.23,0.37,0.35,0.29,0.48
1/4/2020 5:00 AM,220.0,4.13,-0.6,96.0,244.9,4.35,-2.76,98.0,197.7,4.4,-5.24,99.0,197.1,5.31,-5.33,98.0,192.2,4.84,-5.46,95.0,194.8,5.43,-5.57,95.0,194.3,5.75,-5.69,94.0,201.8,5.3,-5.87,89.0,211.2,4.71,-5.89,85.0,220.7,3.67,-5.85,34.0,265.1,2.41,-6.0,22.0,0.35,0.62,0.39,0.32,0.33,0.26,0.26,0.31,0.3,0.87,0.71
1/4/2020 5:10 AM,212.9,5.74,-0.72,98.0,223.1,5.44,-2.24,98.0,204.5,6.79,-5.88,99.0,191.5,5.51,-6.18,99.0,191.6,5.35,-6.39,97.0,191.4,5.49,-6.4,96.0,201.7,5.87,-6.72,94.0,214.3,4.46,-6.75,93.0,200.3,5.59,-6.85,88.0,216.6,4.37,-6.87,84.0,189.1,6.02,-7.34,60.0,0.35,0.59,0.32,0.29,0.25,0.25,0.23,0.36,0.34,0.3,0.5
1/4/2020 5:20 AM,197.8,4.5,-0.49,98.0,244.5,4.57,-3.75,98.0,191.9,5.33,-5.94,99.0,188.1,5.11,-5.89,100.0,185.5,5.68,-5.81,98.0,200.2,3.88,-5.0,96.0,192.9,5.15,-5.77,90.0,196.5,6.62,-5.98,87.0,199.4,6.56,-6.35,61.0,193.6,7.63,-5.98,11.0,182.2,4.96,-6.04,11.0,0.35,0.69,0.24,0.21,0.19,0.64,0.27,0.18,0.55,0.29,0.97
1/4/2020 5:30 AM,179.5,4.79,-0.09,98.0,199.7,2.57,-1.65,97.0,201.0,3.17,-3.63,98.0,175.5,3.26,-4.07,97.0,181.1,5.35,-4.32,96.0,195.1,3.62,-2.8,94.0,193.1,6.46,-4.44,89.0,195.7,6.42,-4.68,58.0,212.9,4.47,-4.39,23.0,201.1,10.51,-3.93,17.0,228.5,10.27,-5.76,2.0,0.09,0.83,0.54,0.43,0.26,0.57,0.27,0.27,0.24,0.85,0.2
1/4/2020 5:40 AM,182.2,4.55,-0.09,98.0,186.6,5.21,-0.07,98.0,189.4,2.57,-1.85,98.0,229.8,1.58,-3.11,97.0,176.4,3.82,-3.95,95.0,181.0,4.69,-3.17,93.0,197.1,4.25,-5.08,85.0,198.9,5.69,-5.15,44.0,189.9,6.16,-5.76,29.0,160.2,6.52,-5.77,21.0,167.3,8.51,-4.96,12.0,0.08,0.08,0.9,1.46,0.51,0.48,0.45,0.58,0.36,0.28,0.35
1/4/2020 5:50 AM,205.1,2.62,-0.51,98.0,265.0,2.1,-1.93,98.0,177.3,5.05,-5.31,100.0,181.2,4.76,-5.35,100.0,183.1,5.54,-5.37,99.0,186.0,5.42,-5.31,98.0,188.1,6.15,-5.42,98.0,190.6,5.83,-5.34,95.0,194.6,6.82,-5.44,91.0,199.1,6.9,-5.45,86.0,220.8,4.86,-5.21,66.0,0.56,1.36,0.21,0.18,0.14,0.19,0.13,0.19,0.15,0.18,0.56
1/4/2020 6:00 AM,303.0,3.79,-2.02,98.0,304.2,4.73,-3.93,98.0,186.4,4.62,-6.02,99.0,191.3,4.75,-6.03,99.0,184.4,5.86,-5.99,98.0,188.7,6.0,-6.04,96.0,192.8,7.45,-6.05,91.0,193.9,7.83,-6.2,87.0,194.8,7.52,-6.38,38.0,206.7,4.9,-6.23,18.0,228.5,5.06,-5.94,6.0,0.8,0.69,0.2,0.22,0.18,0.24,0.14,0.13,0.21,1.07,1.19
1/4/2020 6:10 AM,239.8,2.99,-0.71,96.0,283.0,2.55,-2.19,98.0,197.0,4.12,-5.0,100.0,193.8,3.61,-4.9,100.0,198.3,5.09,-4.95,99.0,199.8,5.57,-4.9,98.0,208.2,5.72,-4.95,95.0,207.7,7.01,-5.17,93.0,206.5,6.22,-5.29,88.0,205.2,6.73,-5.45,82.0,205.0,5.99,-5.37,41.0,0.59,1.0,0.21,0.23,0.16,0.17,0.21,0.14,0.16,0.24,0.24
1/4/2020 6:20 AM,270.3,5.14,-5.13,98.0,198.3,5.32,-6.1,100.0,199.7,5.0,-6.23,100.0,200.5,4.95,-6.16,99.0,206.2,5.5,-6.24,99.0,212.1,5.64,-6.26,97.0,210.2,6.95,-6.25,95.0,216.6,4.68,-6.22,90.0,213.9,7.34,-6.14,86.0,215.3,7.53,-6.5,73.0,220.6,8.6,-6.32,33.0,0.49,0.19,0.17,0.19,0.17,0.23,0.13,0.39,0.28,0.17,0.17
1/4/2020 6:30 AM,335.8,3.0,-3.48,98.0,192.3,3.61,-5.24,97.0,238.9,2.64,-4.38,96.0,274.2,2.41,-3.81,95.0,269.3,2.0,-4.24,93.0,189.0,5.72,-5.63,83.0,200.3,6.76,-5.92,83.0,204.7,5.52,-6.08,66.0,207.4,7.01,-6.0,48.0,221.9,6.76,-5.94,35.0,163.3,3.25,-5.89,8.0,1.36,0.51,0.96,1.26,1.38,0.22,0.17,0.17,0.21,0.25,0.32
1/4/2020 6:40 AM,302.6,3.64,-2.4,97.0,250.9,0.31,-3.44,99.0,259.9,2.01,-2.76,99.0,248.3,2.92,-2.5,98.0,205.2,5.17,-3.86,99.0,199.8,5.16,-4.21,98.0,199.9,6.13,-4.3,95.0,202.7,5.76,-4.34,90.0,207.6,5.67,-4.5,85.0,209.9,7.34,-4.44,56.0,221.9,6.71,-4.44,19.0,0.56,5.35,0.92,0.76,0.27,0.18,0.16,0.14,0.26,0.15,0.25
1/4/2020 6:50 AM,188.0,1.6,-0.1,95.0,223.5,1.96,-0.17,96.0,249.2,2.32,-0.45,95.0,243.2,0.91,-0.5,95.0,4.0,0.4,-0.83,90.0,187.1,0.42,-1.0,58.0,22.7,4.47,-1.4,4.0,332.0,7.66,-1.52,0.0,119.9,23.7,2.88,0.0,7.4,28.96,1.59,0.0,179.9,6.05,-0.46,0.0,0.29,0.34,0.34,0.93,1.76,1.04,0.48,0.03,0.02,0.06,0.0
1/4/2020 7:00 AM,182.1,2.79,0.01,96.0,197.8,2.19,-0.02,95.0,213.7,1.02,-0.22,95.0,123.3,0.42,-0.2,95.0,221.8,1.37,-0.15,63.0,201.0,2.47,-0.13,16.0,243.0,22.49,1.9,0.0,212.3,23.14,-3.75,0.0,194.7,45.42,0.33,0.0,300.1,28.44,-4.2,0.0,179.9,23.67,-1.78,0.0,0.16,0.17,0.63,0.77,0.2,0.24,0.1,0.0,0.0,0.0,0.08
1/4/2020 7:10 AM,241.1,2.03,-0.19,94.0,300.9,2.71,-0.92,97.0,294.5,2.09,-2.15,97.0,275.0,3.19,-1.88,96.0,272.2,1.87,-3.08,95.0,225.5,3.46,-4.42,89.0,225.3,2.37,-4.49,60.0,184.8,3.25,-4.63,32.0,118.7,3.32,-4.18,14.0,192.3,7.78,-2.92,10.0,152.1,14.94,-3.58,1.0,0.29,0.6,1.04,0.61,1.5,0.41,0.35,1.09,0.67,0.2,0.32
1/4/2020 7:20 AM,304.0,6.73,-2.67,97.0,316.6,1.84,-3.87,99.0,243.3,3.54,-4.31,99.0,230.8,3.35,-4.43,100.0,229.0,3.88,-5.03,99.0,223.1,4.4,-4.96,98.0,229.5,4.57,-5.0,96.0,214.3,5.04,-4.98,93.0,210.8,4.64,-5.04,88.0,210.7,5.76,-5.19,79.0,224.0,5.22,-5.38,49.0,0.35,1.43,0.51,0.53,0.33,0.26,0.25,0.25,0.29,0.31,0.24
1/4/2020 7:30 AM,8.3,2.62,-1.97,97.0,272.3,1.5,-3.5,98.0,256.9,1.43,-4.06,99.0,245.4,1.96,-4.04,99.0,217.1,3.96,-4.24,98.0,215.2,4.16,-4.5,96.0,205.5,4.96,-4.75,94.0,208.7,4.9,-5.1,91.0,220.0,4.07,-5.28,88.0,204.8,6.15,-5.28,70.0,188.0,3.12,-5.26,49.0,0.94,1.44,1.08,0.83,0.38,0.34,0.26,0.31,0.59,0.27,0.48
1/4/2020 7:40 AM,128.2,2.31,-1.47,96.0,97.5,1.9,-3.44,98.0,193.4,3.32,-3.67,99.0,218.4,1.75,-3.89,99.0,189.5,4.86,-4.74,98.0,189.7,5.0,-4.87,97.0,205.7,4.53,-4.93,94.0,188.3,5.73,-5.23,92.0,188.4,7.22,-5.56,89.0,190.6,7.06,-5.81,61.0,177.9,6.28,-5.91,16.0,0.97,1.31,0.75,1.36,0.32,0.32,0.51,0.25,0.53,0.23,0.58
1/4/2020 7:50 AM,174.8,5.31,-0.11,96.0,129.9,2.45,-1.49,99.0,194.5,1.74,-1.81,99.0,173.9,3.32,-1.3,98.0,204.0,2.6,-2.05,98.0,191.2,2.64,-3.16,96.0,177.0,2.38,-3.26,92.0,195.2,2.24,-4.09,81.0,209.2,3.95,-4.54,30.0,189.7,6.51,-4.47,4.0,106.2,7.47,-5.05,9.0,0.1,0.88,1.25,0.57,0.76,0.82,0.73,0.67,0.52,0.78,0.76
1/4/2020 8:00 AM,169.0,4.56,-0.1,97.0,177.2,4.71,-0.08,98.0,192.8,4.09,-0.37,97.0,240.4,4.55,-1.93,97.0,203.0,3.64,-0.75,98.0,240.5,4.56,-1.99,96.0,234.4,4.64,-2.78,93.0,209.4,5.27,-4.06,90.0,201.6,5.7,-4.94,66.0,186.3,5.59,-4.95,23.0,224.1,6.5,-5.43,9.0,0.07,0.12,0.29,0.51,0.53,0.5,0.65,0.4,0.2,0.23,0.42
1/4/2020 8:10 AM,119.1,3.61,-0.78,97.0,93.3,3.71,-2.45,98.0,102.1,1.11,-2.84,99.0,238.1,3.0,-4.3,98.0,218.6,3.41,-5.47,97.0,188.5,5.11,-6.01,95.0,196.5,5.88,-6.23,92.0,191.5,5.37,-6.33,90.0,191.1,5.46,-6.55,80.0,197.6,5.9,-6.74,66.0,180.0,6.17,-6.6,51.0,0.54,0.88,3.11,0.95,0.63,0.26,0.21,0.24,0.21,0.3,0.51
1/4/2020 8:20 AM,159.0,4.97,0.01,97.0,163.0,5.26,-0.01,97.0,157.5,4.03,-0.14,97.0,117.2,2.26,-0.71,97.0,174.1,3.47,-1.35,97.0,163.4,3.58,-1.54,93.0,189.6,4.51,-3.92,40.0,183.7,6.41,-4.32,9.0,192.9,9.9,-3.74,2.0,146.8,39.39,1.47,0.0,258.2,14.48,-5.43,0.0,0.07,0.08,0.22,0.68,0.57,0.52,0.43,0.18,0.21,0.0,0.14
1/4/2020 8:30 AM,157.8,5.48,0.01,97.0,145.3,4.73,-0.32,98.0,132.7,5.39,-2.44,98.0,130.6,3.17,-1.04,98.0,158.0,3.52,-2.84,97.0,183.4,6.75,-4.69,92.0,173.0,7.12,-5.23,87.0,167.5,8.74,-3.33,87.0,154.7,8.43,-2.36,69.0,167.1,8.31,-5.52,17.0,147.8,10.43,-5.01,6.0,0.06,0.27,0.49,0.65,0.74,0.26,0.27,0.33,0.28,0.15,0.28
1/4/2020 8:40 AM,165.1,4.92,-0.03,96.0,170.4,5.29,-0.04,98.0,172.7,2.91,-2.0,98.0,112.8,1.79,-1.62,98.0,199.5,3.52,-4.26,95.0,187.2,6.87,-4.84,91.0,179.7,5.71,-5.05,86.0,163.4,9.85,-4.7,37.0,232.2,4.22,-2.8,10.0,207.8,8.32,-5.14,2.0,204.5,8.91,-1.42,3.0,0.06,0.08,0.9,1.4,0.59,0.21,0.3,0.22,0.92,0.21,0.33
1/4/2020 8:50 AM,136.7,1.83,-0.93,97.0,156.8,0.89,-1.66,98.0,227.4,3.17,-1.93,98.0,268.0,5.63,-2.1,98.0,196.3,6.59,-5.39,97.0,196.1,6.47,-5.67,95.0,194.3,6.71,-5.84,92.0,202.8,6.85,-5.99,88.0,195.6,6.93,-6.15,87.0,202.9,6.88,-6.39,74.0,222.8,4.82,-6.44,52.0,1.16,3.2,0.99,0.54,0.23,0.17,0.17,0.21,0.23,0.18,1.15
1/4/2020 9:00 AM,1.3,2.25,-1.74,97.0,359.6,2.86,-2.81,99.0,304.1,5.02,-2.95,99.0,290.7,3.34,-3.97,98.0,197.8,5.65,-5.43,99.0,199.8,6.44,-5.4,98.0,195.7,6.05,-5.48,97.0,205.5,5.93,-5.44,93.0,214.5,8.56,-5.29,90.0,215.0,6.94,-5.66,87.0,219.8,6.1,-5.51,83.0,1.16,1.01,0.55,0.85,0.15,0.14,0.14,0.22,0.23,0.28,0.32
1/4/2020 9:10 AM,75.7,2.61,-4.16,98.0,82.6,2.18,-4.37,99.0,148.7,1.62,-4.1,99.0,197.5,4.87,-5.64,99.0,197.9,5.89,-5.8,98.0,189.2,5.51,-5.91,96.0,192.7,6.15,-6.09,93.0,198.6,6.36,-6.21,91.0,210.8,6.05,-6.3,88.0,210.1,5.0,-6.34,79.0,195.2,6.91,-6.38,64.0,1.15,1.59,1.93,0.3,0.17,0.17,0.17,0.21,0.33,0.54,0.27
1/4/2020 9:20 AM,165.0,3.29,-0.47,95.0,94.4,2.34,-1.67,98.0,47.3,2.03,-2.81,98.0,185.9,4.4,-3.84,98.0,184.6,5.1,-4.04,98.0,191.1,6.24,-4.1,94.0,188.1,6.3,-4.24,89.0,193.3,6.74,-4.21,56.0,244.0,3.41,-3.85,19.0,256.4,5.88,-2.61,4.0,31.1,17.36,-1.84,1.0,0.36,0.92,0.93,0.34,0.27,0.16,0.15,0.15,0.42,1.0,1.02
1/4/2020 9:30 AM,162.5,5.33,-0.15,97.0,166.9,5.72,-0.16,98.0,110.1,2.77,-0.42,97.0,15.1,1.46,-0.93,95.0,162.1,2.48,-0.72,92.0,120.5,3.17,-1.56,32.0,264.6,8.53,-2.17,8.0,108.3,10.88,-3.67,2.0,8.9,7.95,-4.64,0.0,187.2,6.95,-0.05,55.0,191.2,7.57,-0.05,94.0,0.06,0.09,0.41,0.82,0.74,0.4,0.38,0.21,1.17,0.14,0.05
1/4/2020 9:40 AM,165.4,5.47,-0.09,96.0,158.1,5.77,-0.44,97.0,159.1,4.51,-2.7,99.0,175.8,4.1,-2.8,98.0,176.9,5.53,-4.0,97.0,175.6,6.31,-4.34,91.0,178.7,6.27,-4.64,86.0,188.2,6.2,-5.16,52.0,179.4,6.71,-0.34,91.0,184.3,7.72,-0.28,94.0,188.5,7.49,-0.9,62.0,0.05,0.23,0.52,0.58,0.36,0.18,0.22,0.22,0.25,0.27,0.44
1/4/2020 9:50 AM,163.5,5.57,-0.09,98.0,163.3,6.56,-0.09,98.0,172.5,6.17,-0.29,98.0,168.0,4.86,-0.31,99.0,134.7,0.43,-1.66,91.0,187.2,3.16,-3.44,46.0,145.6,2.1,-3.76,18.0,171.7,14.88,-3.09,0.0,173.3,16.55,-1.92,0.0,187.1,8.15,-0.03,41.0,191.5,8.61,-0.04,58.0,0.05,0.06,0.15,0.22,1.26,0.57,0.57,0.11,0.28,0.22,0.17
1/4/2020 10:00 AM,167.2,6.12,-0.07,97.0,168.8,6.85,-0.12,98.0,177.2,7.34,-0.21,97.0,164.3,5.53,-0.32,98.0,218.3,3.34,-3.41,92.0,177.3,8.19,-4.62,86.0,178.0,7.6,-4.55,48.0,187.4,8.69,-4.72,15.0,146.0,18.44,-2.28,3.0,167.7,27.22,-1.59,0.0,140.9,19.4,-3.83,0.0,0.05,0.06,0.09,0.18,0.54,0.16,0.13,0.22,0.57,0.16,0.14
1/4/2020 10:10 AM,170.5,6.66,-0.1,98.0,169.9,7.55,-0.09,98.0,168.9,7.17,-0.23,99.0,186.2,6.59,-0.26,99.0,203.2,6.01,-3.73,96.0,186.5,8.93,-4.91,93.0,186.8,8.68,-4.95,90.0,181.0,8.62,-4.97,76.0,183.2,9.02,-5.02,45.0,224.0,1.17,-4.81,26.0,190.9,11.93,-4.61,15.0,0.04,0.04,0.1,0.14,0.49,0.13,0.15,0.11,0.21,0.45,0.28
1/4/2020 10:20 AM,169.2,6.15,-0.08,97.0,170.1,7.02,-0.07,98.0,176.6,7.93,-0.05,99.0,183.3,7.94,-0.07,99.0,189.3,7.35,-1.63,96.0,186.7,9.49,-4.78,92.0,185.0,10.25,-3.71,88.0,175.6,10.4,-4.7,52.0,182.2,8.55,-4.58,35.0,184.8,7.63,-5.12,18.0,160.2,8.46,-1.97,20.0,0.05,0.05,0.04,0.05,0.37,0.11,0.18,0.14,0.1,0.18,0.45
1/4/2020 10:30 AM,153.5,5.03,-0.34,97.0,163.8,5.67,-0.18,96.0,163.2,6.54,-0.26,98.0,179.5,6.46,-0.71,99.0,210.2,6.21,-2.61,98.0,187.9,7.37,-5.85,98.0,186.9,7.94,-5.87,97.0,184.2,8.57,-5.88,95.0,179.9,7.67,-5.86,90.0,188.5,8.52,-5.89,88.0,193.9,9.29,-5.89,75.0,0.26,0.12,0.13,0.31,0.49,0.13,0.17,0.17,0.2,0.31,0.13
1/4/2020 10:40 AM,161.0,5.41,-0.1,97.0,163.2,6.39,-0.11,98.0,163.2,7.23,-0.14,99.0,165.3,7.8,-0.26,98.0,189.4,7.29,-1.28,97.0,193.4,7.71,-4.82,93.0,185.3,7.75,-5.63,88.0,176.0,10.46,-5.93,76.0,176.2,10.08,-5.75,36.0,209.9,4.25,-5.67,17.0,196.9,9.2,-4.32,17.0,0.1,0.08,0.08,0.14,0.32,0.36,0.29,0.15,0.17,1.2,0.65
1/4/2020 10:50 AM,171.7,5.03,-0.02,97.0,175.4,6.03,-0.07,98.0,179.1,6.6,-0.05,99.0,182.1,7.2,-0.06,99.0,189.2,8.3,-0.34,98.0,198.4,7.55,-3.82,93.0,196.1,8.51,-4.65,89.0,192.4,7.98,-4.67,65.0,202.4,8.39,-5.02,57.0,200.6,10.74,-4.66,28.0,169.8,6.7,-4.45,15.0,0.06,0.06,0.05,0.03,0.16,0.26,0.13,0.24,0.44,1.12,0.48
1/4/2020 11:00 AM,165.8,6.19,-0.03,98.0,168.4,6.85,-0.04,98.0,173.2,7.73,-0.04,99.0,178.0,7.91,-0.05,100.0,184.3,8.85,-0.05,100.0,187.5,8.43,-0.53,98.0,182.8,9.03,-0.79,94.0,197.0,7.5,-0.69,89.0,184.7,7.87,-0.57,36.0,185.2,7.81,-1.2,22.0,194.5,8.87,-0.15,92.0,0.06,0.05,0.04,0.03,0.03,0.19,0.25,0.31,0.42,0.54,0.17
1/4/2020 11:10 AM,184.2,4.99,-0.02,98.0,186.8,5.81,-0.01,98.0,188.5,6.6,-0.05,99.0,189.3,7.23,-0.01,99.0,197.5,7.94,-0.12,99.0,208.2,8.36,-0.35,97.0,212.5,8.57,-0.72,95.0,212.7,8.56,-0.14,96.0,217.1,8.04,-0.25,93.0,211.9,8.29,-0.7,76.0,151.9,4.08,-1.67,34.0,0.06,0.06,0.04,0.04,0.07,0.13,0.21,0.09,0.23,0.28,0.99
1/4/2020 11:20 AM,195.3,3.61,-0.11,97.0,189.3,4.01,-0.11,97.0,203.3,4.53,-0.18,99.0,196.2,5.47,-0.2,97.0,194.2,6.98,-0.02,98.0,210.1,7.82,-0.65,98.0,222.9,7.34,-1.25,97.0,218.0,8.75,-1.4,95.0,230.3,7.1,-0.6,95.0,224.0,8.48,-2.49,87.0,209.5,13.76,-3.48,45.0,0.19,0.18,0.2,0.2,0.04,0.23,0.32,0.27,0.26,0.38,0.31
1/4/2020 11:30 AM,331.2,4.38,-4.29,99.0,320.4,0.69,-4.73,99.0,324.8,1.51,-4.66,98.0,289.3,3.42,-4.07,98.0,259.9,5.74,-3.66,98.0,267.3,9.34,-2.78,97.0,257.6,8.67,-2.98,96.0,236.2,7.15,-2.18,96.0,249.1,8.37,-1.37,94.0,277.4,9.07,-5.64,86.0,215.8,3.21,-6.86,62.0,0.8,3.51,2.78,1.09,0.63,0.38,0.45,0.56,0.38,0.48,1.69
1/4/2020 11:40 AM,153.8,2.17,-0.25,98.0,182.0,3.13,-0.17,98.0,178.6,4.11,-0.05,98.0,185.1,4.51,-0.07,97.0,201.2,5.5,-0.18,97.0,215.9,5.32,-0.24,96.0,218.9,5.31,-0.04,97.0,223.0,6.96,-0.06,98.0,218.3,8.06,-0.3,65.0,297.3,4.2,-4.36,2.0,8.3,22.43,-4.75,0.0,0.48,0.32,0.14,0.13,0.18,0.24,0.08,0.08,0.3,0.2,0.06
1/4/2020 11:50 AM,178.0,2.51,-0.22,96.0,242.3,3.45,-0.45,96.0,231.5,4.36,-0.48,97.0,229.2,5.16,-0.42,98.0,244.3,6.36,-0.81,95.0,238.9,6.18,-0.81,97.0,231.9,4.26,-0.54,97.0,232.4,6.37,-0.15,99.0,199.8,5.81,-3.93,87.0,237.1,6.0,-6.11,57.0,214.2,10.09,-5.47,31.0,0.47,0.35,0.32,0.19,0.29,0.3,0.38,0.1,0.58,0.59,0.36
1/4/2020 12:00 PM,204.0,3.58,-0.08,97.0,205.5,4.59,-0.08,96.0,204.9,5.14,-0.08,97.0,216.1,5.0,-0.15,96.0,221.5,5.83,-0.13,96.0,222.1,5.88,-0.19,97.0,228.4,5.44,-0.15,99.0,227.4,7.43,-0.09,99.0,231.2,9.19,-0.19,93.0,244.5,8.22,-0.1,89.0,211.0,7.39,0.0,72.0,0.12,0.09,0.07,0.12,0.12,0.18,0.19,0.04,0.12,0.13,0.32
1/4/2020 12:10 PM,200.0,3.92,-0.07,96.0,209.9,4.22,-0.12,95.0,214.4,4.25,-0.11,97.0,214.1,5.05,-0.07,96.0,219.6,5.39,-0.06,98.0,222.7,6.33,-0.13,99.0,223.6,8.03,-0.14,100.0,226.5,8.76,-0.14,96.0,228.3,8.81,-0.13,90.0,234.1,9.21,-0.19,91.0,237.7,9.99,-0.2,80.0,0.12,0.11,0.09,0.06,0.05,0.04,0.04,0.09,0.04,0.06,0.06